Simultaneous Nadir Overpasses (SNOs) Predictions

Prediction of SNOs over PacNW region [( 10.00, 139.50) to ( 22.70, 165.60)] between NOAA-19 and NPP Satellites:

Table of predicted SNOs over PacNW region for the next 30.0 days since TLE Epoch: 7/5/2013
Index Date (NOAA-19) Time (NOAA-19) NOAA-19 Lat,Lon Date (NPP) Time (NPP) NPP Lat,Lon Distance(km) Time Diff (sec)
1 07/09/2013 03:10:28 16.62, 154.52 07/09/2013 03:12:12 15.75, 150.65 424.28 104
2 07/09/2013 15:47:10 14.08, 150.25 07/09/2013 15:44:42 14.73, 147.31 325.14 148
3 07/21/2013 15:15:16 22.60, 159.78 07/21/2013 15:16:45 23.51, 155.84 415.97 89
4 07/22/2013 02:31:41 22.65, 163.23 07/22/2013 02:29:28 22.05, 160.28 310.41 133
5 07/22/2013 04:11:41 15.38, 139.50 07/22/2013 04:10:10 19.24, 135.60 597.26 91
6 08/03/2013 03:42:57 18.34, 146.26 08/03/2013 03:44:11 17.46, 142.43 416.65 74
7 08/03/2013</
